Location: Unspecified
(0.0000°N, 0.0000°E)
Time: 11:21:10
(UTC+00:00)

Explorer 11/Cluster Stage 4 - Pass Details

Date: 08 October 2020
Orbit: 467 x 1258 km, 28.8° (Epoch: 28 October)

Event Time Altitude Azimuth Distance (km) Brightness Sun altitude
Rises 02:52:58 0° 320° (NW) 3,279 - -43.3°
Reaches altitude 10° 02:55:32 10° 330° (NNW) 2,478 - -42.7°
Maximum altitude 03:00:53 32° 33° (NNE) 1,615 - -41.4°
Exits shadow 03:02:46 28° 61° (ENE) 1,820 8.7 -40.9°
Drops below altitude 10° 03:07:15 10° 93° (E) 2,978 10.2 -39.8°
Sets 03:10:37 0° 102° (ESE) 4,041 11.1 -39.0°
